Regional Weather Roundup
Issued by NWS

Home | Current Version | Previous Version | Graphics & Text | Print | Product List | Glossary On
Versions: 1 2 3 4 5 6 7 8 9 10 11 12 13 14 15 16 17 18 19 20 21 22 23 24 25 26 27 28 29 30 31 32 33 34 35 36 37 38 39 40 41 42 43 44 45 46 47 48 49 50
000
ASUS43 KBIS 072302
RWRND

NORTH DAKOTA REGIONAL WEATHER ROUNDUP
NATIONAL WEATHER SERVICE BISMARCK ND
500 PM CST WED DEC 07 2016

NOTE: "FAIR" INDICATES FEW OR NO CLOUDS BELOW 12,000 FEET WITH NO
SIGNIFICANT WEATHER AND/OR OBSTRUCTIONS TO VISIBILITY.


NDZ001>003-009>011-017-080000-
NORTHWEST NORTH DAKOTA

CITY           SKY/WX    TMP DP  RH WIND       PRES   REMARKS
WILLISTON      CLOUDY     3  -5  69 NW14      30.49R WCI -15
MINOT          LGT SNOW   6   0  76 W32G43    30.32R WCI -18
MINOT AFB      DRZL/FOG   4   0  82 NW35G44   30.30R VSB 1/2 WCI -22
$$

NDZ018>021-031>035-040>046-080000-
SOUTHWEST NORTH DAKOTA

CITY           SKY/WX    TMP DP  RH WIND       PRES   REMARKS
BISMARCK       CLOUDY     4  -2  76 W25G36    30.36R WCI -19
DICKINSON      PTCLDY    -1  -8  72 W25       30.36R HAZE    WCI -25
GARRISON         N/A      3  -2  79 NW35G41   30.32R WCI -23
HETTINGER ARPT CLEAR      2  -5  72 NW24G33   30.38R WCI -21
$$

NDZ004>008-012>016-024-026-027-054-080000-
NORTHEAST NORTH DAKOTA

CITY           SKY/WX    TMP DP  RH WIND       PRES   REMARKS
GRAND FORKS    LGT SNOW  20  15  81 NW22G33   30.07R VSB 1   WCI   3
GRND FRKS AFB  LGT SNOW  18  14  86 NW21G30   30.08R WCI   1
DEVILS LAKE    LGT SNOW  12   9  87 NW25G35   30.15R VSB 3/4 WCI  -8
$$

NDZ022-023-025-028>030-036>039-047>053-080000-
SOUTHEAST NORTH DAKOTA

CITY           SKY/WX    TMP DP  RH WIND       PRES   REMARKS
FARGO          LGT SNOW  16   9  74 W28G37    30.11R WCI  -4
JAMESTOWN      SNOW       8   5  87 NW30G43   30.19R VSB 1/2 WCI -15
$$





USA.gov is the U.S. government's official web portal to all federal, state and local government web resources and services.